sat.trackr.live / text

‹ back to catalog

COSMOS 2407

NORAD 28380 · 2004-028A

PAYLOAD ACTIVE UNKNOWN

§ Identity

Operator
Country
CIS
Launch date
2004-07-22
Launch site
PLMSC
Launch vehicle
Mass (kg)
RCS (m²)
1.85

Purposes: nav

External: N2YO · Heavens-Above · Gunter

§ Orbital elements

Epoch: 2026-09-12T02:34:46.094880Z

Period
104.63 min
Inclination
82.9645°
Eccentricity
0.0039380
Mean motion
13.76340069 rev/d
Perigee alt
947.9 km
Apogee alt
1,005.9 km
Semi-major
7,355.0 km
B*
3.4178e-5
RAAN
10.4467°
Arg perigee
11.3084°
Mean anomaly
160.8101°
Rev number
11,183

§ Raw data

COSMOS 24071 28380U 04028A   26255.10747795  .00000049  00000+0  34178-4 0  99942 28380  82.9645  10.4467 0039380  11.3084 160.8101 13.76340069111839

JSON: /api/v1/satellites/28380 · /tle

For live sub-satellite position, see the globe view (requires WebGL).

§ Visibility from observer

Set your observer location to see the next 7 days of passes ≥ 10°. The values pass through the URL so the page stays shareable.

No JS? Fill the form by hand. The geolocation button needs JavaScript.

§ Radio — SatNOGS DB

ModeDescriptionDownlinkUplink
CW Mode U Tracking Beacon 399.920 MHz
FSK Mode V 149.970 MHz

2 transmitters · refreshed weekly from db.satnogs.org